ETA/Arrival + Import & Export ROE

 

 

SERVICE VOYAGE VESSEL POD ROE ETA
AEU2 Q2X 011E CMA CG VASCO DE GAMA SOU 1.3354 07.01.18
EPI2 R2C 011E TEMPANOS LGP 1.3366 08.01.18
AEU7 S3D 013W TALOS FXT 1.3366 08.01.18
AEU1 R9E 022E CSCL ARTIC OCEAN FXT 1.3412 08.01.18
EPIC NG1 014W APL MIAMI SOU 1.3366 08.01.18
NET2 UEO 002S HERON HUNTER FXT 1.3366 09.01.18
NEWA S7X 012S CMA CGM AFRICA TWO TIL 1.3366 09.01.18
AEU1 OJP 002W OOCL Japan FXT 1.3399 10.01.18
AEU7 S3D 013W/E TALOS SOU 1.3399 10.01.18
ESE N9H 001N/002 S CAP SAN ARTEMISSIO LGP 1.3439 12.01.18
NET UEJ 008N/009 S CPO BALTIMORE FXT 1.3439 13.01.18
EPIC NGI 014W/014 E APL MIAMI FXT 1.3439 13.01.18
AEU5 QMW 020W/020 E THAHLASSA ELPIDA FXT 1.3439 13.01.18
TAE T92 036E/037W COSCO VIETNAM SOU 1.3439 13.01.18
AEU2 NM7 013W/013 E APL CHANGI SOU 1.3528 14.01.18
EPIC S8U 010W MSC ALGHERO SOU 1.3528 15.01.18
EPI2 R1C 010E/W/010 E TUCAPEL LGP 1.3528 15.01.18
AEU7 QPH 023W/E THALASSA AVRA FXT 1.3528 15.01.18
AEU1 NQ3 001E OOCL SCANDNAVIA FXT 1.3528 15.01.18
NET2 UEP 001 N/002S NAVIOUS INDIGO FXT 1.3528 16.01.18
NEWA S8X 011 N/012S CMA CGM AFRICA FOUR TIL 1.3528 16.01.18
AEU1 QIP 022W CSCL ATLANTIC OCEAN FXT 1.3580 17.01.18
AEU7 QPH 023W/E/023 E THALASSA AVRA SOU 1.3580 17.01.18
ESE N7G 002N/003 S CAP SAN LORENZO LGP 1.3551 19.01.18
NET RMZ 009N/010 S NORTHERN DECENCY FXT 1.3551 20.01.18
AEU5 QSQ 018W/E/018 E THALASSA TYHI FXT 1.3551 20.01.18
EPIC S8U 010W/E MSC ALGHERO FXT 1.3551 20.01.18
TAE NO2 011E/012W OOCL ASIA SOU 1.3551 20.01.18
AEU2 QXK 013W/E CMA CGM JULES VERNE SOU 1.3563 21.01.18
EPIC N5H 003W/E MSC HEIDI SOU 1.3563 22.01.18
EPI2 QQ7 010E /W CCNI ARAUCO LGP 1.3563 22.01.18
AEU1 QJP 002E OOCL JAPAN FXT 1.3563 22.01.18
AEU7 SVW 051W/E CSCL JUPITER FXT 1.3563 22.01.18
NET2 N6L 002 N/003S SEASPAN JAKARTA FXT 1.3580 23.01.18
NEWA S9X 013S CMA CGM AFRICA THREE TIL 1.3580 23.01.18
AEU1 NQ2 002W OOCL UNITED KINGDOM FXT 1.3523 24.01.18
AEU7 SVW 051W/E CSCL JUPITER SOU 1.3523 24.01.18
ESE N9G 003S CAP SAN AUGUSTIN LGP 1.3535 26.01.18
NET UEG 007N LIVERPOOL EXPRESS FXT 1.3535 27.01.18
EPIC N5H 003W MSC HEIDI FXT 1.3535 27.01.18
AEU5 QSO 019W THALASSA NIKI FXT 1.3535 27.01.18
TAE SP6 127E OOCL EUROPE SOU 1.3535 27.01.18
AEU2 Q5N 012W/E CMA CGM GEORGE FORSTER SOU 1.3688 28.01.18
EPIC N7C 004W/E MSC BUSAN SOU 1.3688 29.01.18
AEU7 QJI 021W/E THALASSA PATRIS FXT 1.3688 29.01.18
AEU1 QIP 022E CSCL ATLANTIC OCEAN FXT 1.3688 29.01.18
EPI2 R3C 012E/W TENO LGP 1.3688 29.01.18
NET2 RCB 035 N/036S YM BUSAN FXT 1.3802 30.01.18
NEWA NR7 010 N/011S CMA CGM AMERICA TIL 1.3802 30.01.18
AEU7 QJI 021W/E THALASSA PATRIS SOU 1.3774 31.01.18
AEU1 Q7U 024W CSCL INDIAN OCEAN FXT 1.3774 31.01.18
ESE N8G 002N/003 S CAP SAN ANTONIO LGP 1.3885 02.02.18
NET NO8 021N OOCL KOBE FXT 1.3885 03.02.18
AEU5 QSZ 018W/E THALASSA DOXA FXT 1.3885 03.02.18
TAE QTE 023E/024W EVER LUCKY SOU 1.3885 03.02.18
AEU2 QWU 014W/E CMA CGM CORTE REAL SOU 1.3847 04.02.18
EPIC S5M 001E MSC BRANKA FXT 1.3847 04.02.18
EPIC R9W 010W/E CSAV TYNDALL SOU 1.3847 05.02.18
EPI2 R4J 017W/E CMA CGM AMAZON LGP 1.3847 05.02.18
AEU1 NQ2 002E OOCL UNITED KINGDOM FXT 1.3847 05.02.18
AEU7 UZ1 015W/E TAURUS FXT 1.3847 05.02.18